Wind_Speed
18 23 23 24 25 26 29 30 28 28 28 29 30 32 33 33 33 33 33 34 35 34 33 33 33 32 31 31 31 29 28 27 25 24 22 20 20 20 21 20 19 18 16 14 13 11 10 11 12 12 13 14 15 14 14 14 14 14 13 14 15 17 19 18 19 20 19 16 12 11 10 10 9 10 10 9 9 8 7 6 6 6 6 6 6
15 16 15 19 22 25 28 29 30 31 32 31 31 32 33 34 35 35 35 36 36 35 33 32 33 33 31 31 31 30 29 28 26 24 21 19 20 21 21 21 20 18 16 14 13 11 11 12 12 13 14 16 16 14 14 15 15 15 15 16 17 18 20 21 22 19 16 15 14 10 7 7 8 9 10 10 10 9 7 6 5 5 5 4 5
13 12 11 17 24 27 27 28 31 34 33 32 32 32 34 35 36 37 37 37 38 37 35 33 32 31 29 29 30 29 28 27 25 22 20 20 21 22 22 22 20 18 16 14 13 12 12 12 13 14 15 16 16 15 15 16 17 16 16 16 18 19 19 22 23 17 13 16 15 7 3 4 4 6 8 10 10 10 8 7 5 4 4 3 4
14 13 11 15 21 24 25 28 31 31 31 34 34 35 36 38 38 38 38 38 39 39 36 34 31 29 28 27 28 28 26 25 24 22 22 22 23 24 23 22 20 18 16 14 14 13 12 13 13 15 16 16 17 16 17 17 17 17 17 17 17 19 20 23 24 17 14 15 9 3 2 3 1 4 7 9 10 10 9 8 6 5 4 4 4
17 16 13 12 16 22 28 30 30 30 33 36 38 39 39 39 39 38 38 38 39 39 37 34 31 30 28 25 25 26 24 24 25 24 25 25 25 25 24 22 20 19 17 16 14 13 13 14 14 16 16 16 16 16 16 17 17 17 18 18 18 19 20 23 24 18 14 15 8 3 3 1 1 4 6 6 9 10 10 9 8 6 5 4 4
17 17 15 13 15 23 28 29 28 30 35 39 41 40 38 37 37 37 38 38 38 38 37 34 33 32 31 28 27 26 24 25 28 28 27 27 26 25 23 22 21 20 18 17 15 14 14 14 15 16 17 17 17 16 15 16 17 18 18 19 19 19 19 22 25 21 15 15 11 5 3 2 3 7 5 2 6 9 10 10 9 8 7 6 4
13 12 12 12 14 17 21 25 29 32 38 40 39 38 37 37 37 38 38 38 38 37 37 35 34 34 34 33 31 29 27 26 27 28 28 27 26 25 24 23 22 20 19 17 15 15 15 15 16 17 17 17 17 16 16 16 17 18 18 19 19 19 20 21 25 23 18 16 14 8 5 3 5 7 4 2 3 6 9 11 11 10 9 7 5
11 10 10 11 13 15 20 26 32 38 40 38 37 38 40 39 39 40 39 38 38 37 37 38 37 36 36 34 33 32 30 26 25 26 27 26 25 24 24 23 22 21 19 18 16 15 16 17 17 17 17 17 17 17 17 16 16 17 19 19 19 20 21 21 22 25 22 18 16 12 7 5 7 7 6 6 3 2 5 8 11 12 11 10 7
11 12 12 13 15 20 26 30 35 39 37 35 39 41 40 39 38 39 39 38 38 38 38 39 39 38 37 35 33 31 29 26 25 26 26 26 26 25 24 24 23 22 20 18 17 16 17 17 18 18 18 17 17 17 17 16 17 18 19 20 20 20 20 20 20 22 24 21 18 15 10 8 9 7 8 8 4 2 3 3 8 11 10 11 10
10 11 12 14 19 27 31 33 36 37 33 33 36 36 35 36 37 38 40 38 38 39 39 40 40 38 38 37 34 30 27 26 26 26 27 27 26 26 26 25 24 23 21 19 17 17 18 18 19 19 18 18 18 17 17 17 17 18 18 19 19 19 19 19 19 19 21 22 20 18 15 12 9 6 8 10 5 3 2 3 9 12 9 10 11
10 11 12 15 22 28 29 30 32 30 29 30 31 31 33 35 37 39 39 38 39 40 40 41 41 40 39 38 35 32 29 28 28 28 28 28 28 28 27 26 25 23 22 20 19 18 19 19 19 19 18 18 18 18 18 17 16 16 17 17 17 17 16 17 18 18 18 20 20 19 18 16 13 10 11 13 9 5 3 3 9 12 10 8 8
10 11 12 13 16 19 21 23 25 23 23 27 30 32 34 36 37 38 38 39 40 41 41 42 41 41 40 38 36 34 32 31 31 31 30 30 30 29 28 26 25 23 22 21 21 20 20 21 20 19 18 17 17 17 18 17 16 15 16 16 16 15 15 15 16 17 18 19 20 20 19 18 18 15 14 14 14 12 8 5 7 10 7 7 8
10 11 11 11 12 13 16 21 23 22 25 29 32 34 35 37 38 38 40 42 41 41 42 42 42 42 40 38 37 35 33 33 34 33 33 33 32 31 30 28 27 25 24 24 24 23 22 22 21 20 18 16 16 16 17 16 15 15 15 15 14 14 14 14 14 15 17 18 19 19 19 18 17 16 15 14 15 15 10 6 7 7 6 8 9
10 11 11 12 13 13 16 22 24 25 30 33 34 35 36 36 38 40 41 41 41 41 42 43 43 42 40 38 37 35 34 34 35 35 35 34 34 33 32 31 30 28 27 26 25 24 23 22 21 19 17 15 15 15 16 15 15 14 14 13 13 12 12 12 13 14 15 16 16 17 17 17 16 15 14 13 14 14 13 11 9 5 5 8 7
9 10 12 13 14 15 18 23 25 27 31 33 34 35 35 36 39 40 39 40 41 42 42 43 43 40 38 38 37 36 35 35 35 35 36 35 35 34 33 33 31 29 28 26 25 25 24 22 20 18 16 14 14 15 15 15 15 14 13 12 12 12 12 12 13 13 14 14 14 14 14 14 13 13 12 12 12 12 13 15 14 8 4 4 4
9 10 12 13 14 16 20 22 25 28 31 33 34 35 36 37 39 41 41 41 42 42 42 43 41 38 38 38 37 36 36 36 35 35 36 36 35 35 34 33 31 29 27 27 26 25 24 22 20 18 15 14 14 15 15 15 15 14 13 12 12 12 12 12 13 12 12 12 11 11 12 12 11 11 11 10 11 11 11 14 17 15 9 3 1
10 11 12 14 14 16 21 24 25 28 30 32 34 37 40 40 41 41 39 39 41 42 42 42 40 39 38 38 37 36 37 37 37 36 36 35 35 34 33 32 31 29 28 27 27 26 24 22 20 18 16 15 15 15 16 15 14 14 13 12 11 11 12 12 12 11 11 11 11 11 10 11 10 9 10 9 9 10 10 11 15 18 15 8 3
11 12 13 14 14 15 20 25 29 32 33 36 38 41 42 42 41 40 40 41 43 43 42 41 40 39 38 38 37 37 37 37 37 36 35 35 34 33 33 32 31 29 28 27 27 27 25 23 21 19 17 16 16 16 16 15 14 14 13 11 11 11 12 13 12 12 12 11 11 11 10 10 9 9 8 8 7 8 9 10 13 16 16 13 9
9 11 11 13 13 14 19 25 29 32 34 37 39 39 37 38 38 39 41 42 41 39 39 39 40 39 38 39 38 38 37 37 36 36 36 36 35 34 34 33 32 30 28 28 29 28 26 24 22 19 17 17 17 17 16 15 14 13 12 11 11 12 13 13 13 12 12 12 12 11 11 10 9 9 8 7 6 6 6 9 11 13 13 13 14
9 10 11 13 14 16 22 26 29 32 35 37 36 34 34 35 36 37 37 37 37 38 39 40 40 40 38 37 38 38 37 37 36 36 37 37 36 35 34 33 32 31 29 30 30 29 27 25 23 20 19 18 18 17 16 15 14 13 12 11 12 13 14 14 14 14 13 13 12 12 11 11 10 10 9 8 7 7 6 6 7 10 11 11 15
9 9 11 13 14 16 23 28 30 32 33 32 32 33 34 34 34 35 36 36 38 39 40 40 40 39 38 38 38 37 37 36 36 37 38 38 37 36 35 34 33 31 30 30 30 29 27 25 23 21 20 19 19 18 17 15 14 13 12 12 12 14 14 15 15 15 14 13 13 12 12 12 12 10 10 9 8 8 7 7 7 8 10 11 14
9 9 11 12 13 14 19 25 28 27 25 27 30 32 32 33 35 36 36 38 40 40 41 41 40 39 38 38 37 36 36 36 36 37 38 38 38 37 36 34 33 32 30 30 30 29 27 25 24 22 21 20 19 18 17 16 15 14 13 13 13 14 15 16 16 16 15 14 14 14 14 14 12 11 10 9 8 8 7 8 9 9 11 12 12
9 9 10 11 12 13 17 22 24 24 25 28 30 31 33 36 36 36 37 39 41 41 41 40 38 38 37 36 36 36 36 36 37 38 38 38 38 38 36 35 34 33 31 30 30 29 28 26 24 23 22 21 20 19 18 17 16 15 14 14 14 15 16 16 17 16 16 16 15 15 15 15 13 12 11 10 9 8 6 8 10 10 12 12 11
9 9 10 11 12 13 15 16 16 19 24 27 29 31 33 34 34 36 38 40 40 39 38 38 38 37 36 35 36 37 37 37 38 38 39 38 38 38 36 36 35 34 32 31 31 30 28 27 25 24 23 22 21 20 18 17 17 16 15 15 15 16 17 16 16 17 17 17 17 17 16 16 15 13 12 11 10 8 6 7 9 10 12 13 11
8 9 10 11 13 13 13 11 12 18 23 27 30 32 32 34 36 38 39 38 38 38 38 38 38 36 35 36 36 37 38 39 39 39 39 38 38 38 37 36 36 34 33 32 32 30 29 28 27 25 24 23 22 20 19 18 17 16 15 15 16 17 17 16 16 16 17 17 18 18 17 16 15 14 13 12 11 9 7 7 9 11 12 13 12
9 9 9 11 12 12 12 11 13 20 24 25 29 32 33 34 36 38 37 36 37 37 37 37 37 36 36 36 37 38 39 40 39 39 39 38 38 38 37 37 36 35 34 33 33 32 30 29 28 26 25 24 22 20 19 18 17 17 16 16 16 17 17 17 17 16 17 18 18 18 17 16 16 15 14 13 11 10 8 8 10 12 13 13 13
9 8 8 9 10 11 13 12 14 20 25 27 29 31 33 34 35 36 36 35 36 37 37 36 36 36 36 37 38 39 39 39 39 39 39 39 39 38 38 37 36 35 35 34 34 33 31 30 29 27 25 24 22 20 19 18 18 18 17 17 17 18 18 17 16 17 17 18 18 17 16 16 15 14 14 13 12 10 8 9 11 14 14 13 12
8 7 8 9 9 11 12 12 13 18 24 27 28 29 31 32 33 34 34 35 36 36 36 36 36 36 36 37 38 38 38 38 38 38 38 39 40 40 39 38 37 36 36 35 35 34 32 31 29 27 25 24 22 21 20 19 19 19 18 18 19 19 19 18 17 17 18 17 17 16 15 15 13 12 12 12 12 11 10 11 14 14 14 12 12
9 7 7 9 9 10 10 11 13 16 20 23 25 27 28 29 30 32 33 35 36 35 36 36 35 36 36 36 36 36 36 37 37 37 38 39 39 39 39 38 37 36 36 36 35 34 33 31 30 27 25 24 23 22 21 20 20 20 20 19 19 19 19 19 19 19 18 17 17 16 15 14 12 11 11 11 11 11 10 13 16 15 13 12 12
10 8 6 8 9 9 10 11 12 14 18 22 24 27 30 31 31 33 34 35 36 36 35 35 35 36 35 35 35 35 35 37 37 37 37 38 37 37 38 38 37 36 36 36 35 34 33 32 30 28 26 25 24 23 21 20 20 20 20 20 20 20 20 20 20 21 19 18 18 16 15 14 12 11 10 10 11 11 10 12 15 15 13 12 12
9 10 6 6 7 7 9 11 12 14 18 22 24 27 29 30 30 32 33 35 35 35 34 35 35 34 33 33 34 35 36 37 38 37 37 37 36 36 37 37 37 36 36 36 36 34 33 32 31 29 27 26 25 23 21 20 20 21 21 21 21 21 21 21 21 22 21 20 18 17 15 15 14 12 11 10 12 12 11 12 14 13 12 11 11
9 10 7 5 7 7 9 10 11 14 18 21 22 24 25 27 30 32 33 34 34 34 34 34 34 33 33 34 34 35 36 37 38 38 37 36 36 36 36 36 37 37 36 36 36 35 34 33 31 30 28 27 26 24 22 21 21 21 21 21 22 22 22 22 22 22 21 20 19 17 17 16 15 13 12 12 13 14 14 14 14 13 12 10 10
8 9 9 5 5 7 8 9 10 14 20 22 23 24 24 27 29 30 30 31 32 32 32 31 32 33 33 33 34 35 36 37 38 37 37 36 35 35 36 37 38 37 36 36 36 36 35 34 33 31 30 28 27 24 22 22 22 23 22 22 22 22 22 23 23 22 22 21 19 19 19 17 15 13 12 13 15 16 15 14 13 13 12 11 10
7 8 8 6 3 6 8 10 13 17 19 22 24 24 24 25 26 26 28 29 29 29 29 29 31 32 33 33 34 35 36 36 38 37 35 35 35 36 37 37 38 38 37 36 36 37 37 36 35 33 31 30 28 25 24 23 24 24 23 23 23 22 22 22 22 22 22 20 19 21 20 18 15 14 13 15 16 16 14 13 12 13 13 11 10
6 6 7 6 3 5 7 10 16 20 21 22 23 24 23 24 26 27 28 29 29 28 28 28 29 30 31 33 34 35 35 36 37 37 37 36 35 36 37 36 35 36 38 38 38 39 39 38 36 35 33 32 29 26 25 25 25 25 24 24 24 23 23 22 22 23 22 19 19 22 21 18 16 15 16 17 17 15 14 12 11 13 13 11 10
7 7 6 6 5 5 8 12 17 21 23 23 24 24 23 24 26 28 29 29 29 27 26 27 28 29 31 33 34 35 35 36 36 35 36 37 36 36 37 36 34 34 36 38 39 40 40 40 38 36 35 33 30 28 26 26 26 26 25 25 25 25 24 22 23 24 22 19 20 23 21 18 17 16 17 18 16 15 14 12 10 12 13 11 11
6 6 6 7 8 8 10 14 18 20 22 23 25 25 24 24 25 27 28 28 27 26 26 27 27 28 30 32 34 34 34 36 36 35 34 35 36 36 35 34 34 34 35 37 39 38 37 39 39 38 36 34 31 29 28 27 28 27 27 28 27 26 26 24 24 25 22 20 22 23 21 19 18 17 17 18 16 15 14 12 10 11 12 12 13
6 6 6 7 9 10 12 15 18 20 22 25 26 26 25 22 22 24 25 25 25 25 26 27 28 29 30 32 34 35 34 34 34 35 36 36 36 35 34 35 36 36 35 37 38 35 32 34 37 37 36 35 33 31 29 29 29 28 29 29 28 27 28 26 25 25 23 22 24 24 21 19 19 17 16 17 16 16 15 13 11 11 12 14 15
8 8 8 9 11 13 15 15 16 18 22 25 27 27 24 21 21 23 22 22 24 27 29 30 30 30 31 31 33 35 35 35 34 34 35 36 35 34 34 36 37 36 35 35 36 35 33 33 35 36 35 35 33 32 31 30 30 30 30 29 28 29 29 28 26 26 25 24 25 25 22 20 18 17 16 16 16 16 16 14 11 11 12 13 14
7 8 10 11 11 13 14 15 17 20 22 25 27 26 23 21 22 23 22 23 26 28 30 31 30 30 30 32 33 34 36 38 37 35 34 33 33 33 34 34 34 34 35 34 33 32 31 32 34 35 35 35 34 32 32 31 31 32 32 30 30 31 31 28 27 27 26 27 27 26 23 20 18 18 17 16 16 16 15 14 12 12 11 11 11
5 9 11 8 11 14 15 17 22 23 23 25 26 23 22 23 23 22 24 27 28 28 27 28 29 31 32 33 35 36 38 39 39 38 36 34 33 34 35 34 34 34 33 30 29 30 29 31 34 36 35 35 34 33 33 33 33 33 32 31 32 32 31 29 28 27 28 29 29 27 24 21 20 20 19 18 18 17 16 15 14 11 9 8 9
2 5 8 8 11 13 15 17 21 24 26 28 27 23 22 23 23 24 26 26 25 25 26 27 29 31 33 35 36 38 40 40 38 37 35 33 33 35 37 37 35 34 32 31 31 32 32 31 32 33 33 34 34 32 32 33 34 34 33 32 32 32 31 29 28 28 28 29 28 27 25 22 22 22 20 20 19 19 18 17 15 12 9 8 9
4 2 5 8 9 11 15 18 21 25 27 29 28 24 21 21 23 26 27 27 28 29 27 27 29 31 33 36 37 38 40 39 37 34 32 31 32 34 37 38 36 33 31 31 32 32 31 29 28 28 29 31 32 32 31 33 35 35 34 33 32 31 31 30 28 29 29 29 28 27 24 22 23 22 21 21 21 20 20 18 15 13 12 11 10
5 2 7 10 9 10 13 16 20 23 26 28 28 24 21 22 24 25 27 30 32 31 29 28 30 32 34 36 38 40 40 39 37 33 31 31 33 36 37 38 37 34 32 31 31 31 31 30 28 28 28 29 31 32 31 32 34 35 35 33 31 31 31 30 28 28 29 28 28 27 24 22 22 21 20 20 21 21 20 17 15 15 14 13 12
7 6 10 12 8 8 10 12 18 24 26 28 28 25 22 24 25 27 31 32 28 27 28 27 26 28 31 34 36 39 40 39 37 34 32 32 33 34 34 34 34 33 32 30 29 30 31 31 29 29 29 30 31 31 32 32 33 33 34 33 32 32 32 30 28 27 27 27 26 25 22 20 20 19 19 20 21 21 20 17 16 16 16 14 14
6 6 5 4 4 3 3 4 11 20 25 27 28 26 25 26 25 27 31 31 27 26 27 26 26 30 34 36 36 36 37 37 36 34 35 36 37 35 34 33 33 33 31 29 28 28 29 29 27 27 28 28 29 31 32 33 33 33 34 33 33 34 33 30 28 27 26 25 24 22 19 18 19 20 20 21 21 21 20 19 18 17 16 15 14
7 3 4 3 4 4 2 2 4 12 18 22 25 27 26 24 22 23 25 24 26 27 28 29 33 37 38 37 36 35 34 34 34 32 33 36 39 39 37 35 34 31 26 23 24 25 25 25 25 25 26 27 29 30 31 33 34 35 36 36 35 35 34 31 28 27 26 24 22 20 18 19 21 22 21 20 20 20 20 20 19 18 17 16 15
9 8 2 5 4 2 2 3 2 6 11 15 20 23 23 20 19 21 22 24 27 30 30 31 34 34 34 35 37 38 36 35 34 32 33 35 36 37 37 36 34 31 27 25 26 27 28 28 27 25 25 25 27 29 32 35 37 37 38 38 37 36 35 33 30 28 25 23 22 20 19 21 23 23 22 21 21 21 20 20 20 19 19 18 17
6 9 8 5 5 5 6 6 4 5 8 11 13 16 17 18 19 22 24 27 28 29 29 29 30 31 31 33 35 37 36 34 31 29 32 35 37 38 39 36 34 35 35 36 36 36 35 34 31 29 28 27 27 31 35 37 37 37 38 38 38 38 37 34 31 29 26 24 22 21 21 23 24 23 23 23 23 22 21 21 21 21 20 20 19
5 7 8 7 7 8 9 8 6 6 7 9 10 12 14 17 20 24 27 29 29 28 27 27 27 28 30 31 32 31 30 29 27 25 25 26 27 31 36 35 34 36 38 38 38 37 37 36 33 32 32 31 31 34 35 34 34 35 36 37 37 37 36 34 32 30 27 25 24 23 23 24 24 23 23 24 23 23 22 22 22 22 22 22 21
5 6 6 7 8 8 9 9 8 7 8 9 10 12 15 17 21 25 27 30 30 27 24 24 26 29 30 30 29 27 27 26 24 23 24 24 20 20 24 29 32 34 34 33 32 32 32 32 32 31 31 30 29 29 29 31 32 33 34 35 36 34 33 33 32 30 27 26 25 24 24 24 24 24 24 24 23 23 22 23 23 23 23 24 23
Wind_Direction
223 218 207 204 204 198 196 197 198 200 205 206 205 203 202 200 200 202 204 204 204 205 205 205 203 203 205 207 208 208 208 209 212 216 220 225 227 226 225 223 223 224 228 236 238 235 228 218 213 208 204 201 199 201 200 196 196 193 188 188 182 168 161 162 166 162 146 133 135 144 153 164 172 174 171 165 161 157 149 140 126 122 118 113 106
224 221 201 194 199 197 195 193 192 195 200 205 206 204 203 202 202 202 203 205 206 207 206 207 206 203 203 205 206 207 209 211 213 216 220 225 225 223 223 223 222 222 226 234 237 234 225 217 213 206 200 198 198 200 200 194 190 192 188 183 181 175 167 165 166 162 150 143 142 132 126 147 167 175 174 171 169 168 165 161 146 134 133 136 131
221 218 190 185 193 194 193 192 194 196 197 201 206 206 204 203 203 203 203 204 207 208 209 210 209 207 206 207 206 207 210 213 216 218 220 224 224 221 222 222 221 221 225 233 236 234 227 220 213 206 200 197 197 198 198 194 188 191 193 187 181 177 173 173 174 174 163 153 145 134 131 138 152 177 178 179 181 181 179 176 170 157 152 160 160
216 216 197 184 187 189 192 194 196 195 194 199 204 206 205 205 205 204 203 204 206 208 210 211 211 210 210 211 211 210 212 214 218 221 221 221 220 219 219 220 220 221 225 232 235 234 228 221 214 206 201 199 201 202 200 199 196 195 197 198 190 181 179 181 184 187 180 165 146 108 138 143 193 196 176 180 188 189 190 190 186 183 183 185 183
208 210 202 186 182 189 195 197 195 193 194 200 204 205 205 205 205 204 203 205 206 207 208 209 209 209 208 208 208 208 210 210 210 211 211 213 214 215 216 217 219 222 225 230 234 234 226 220 214 206 203 202 205 208 207 205 204 204 203 204 203 196 191 189 190 194 193 190 183 136 136 162 234 173 158 178 194 191 194 198 197 198 204 204 190
208 207 199 188 187 193 197 196 193 195 200 203 205 206 206 205 205 204 204 205 207 207 206 206 206 206 203 199 197 197 200 202 202 202 202 204 209 214 215 217 219 221 224 228 232 232 225 219 213 207 205 206 208 211 211 209 209 211 210 210 212 212 207 197 195 198 197 200 203 186 184 206 156 149 144 178 200 198 200 200 203 206 213 218 200
217 211 197 189 192 195 197 196 194 200 205 206 205 205 205 205 204 204 204 205 206 206 205 204 204 205 204 201 200 198 200 202 202 203 203 204 208 214 215 216 218 220 222 226 230 229 223 218 213 209 209 211 213 214 214 214 216 218 219 220 219 218 215 207 202 202 200 204 211 211 211 194 157 155 163 162 177 211 212 204 207 209 214 220 211
210 209 194 189 195 198 201 200 201 206 208 204 202 204 205 205 204 203 204 205 205 205 204 203 203 204 205 205 204 204 205 204 201 203 205 206 209 212 213 215 217 219 220 224 227 226 221 216 213 210 210 214 219 221 222 222 224 226 226 227 225 222 221 219 213 207 204 206 209 213 219 202 185 186 197 184 146 183 209 207 209 209 214 219 217
204 203 196 194 197 201 205 206 208 211 209 203 202 204 204 203 202 202 203 203 204 204 204 204 204 205 205 205 206 206 206 205 201 201 204 205 207 209 211 215 216 216 218 222 224 222 219 215 212 212 213 219 224 229 232 233 233 233 233 231 228 225 225 226 223 216 213 212 210 210 208 195 195 202 200 190 167 155 187 206 197 198 212 218 215
204 206 200 199 201 204 207 208 211 212 209 205 205 204 202 201 200 201 202 202 202 204 204 204 204 205 206 206 205 204 203 200 198 199 202 202 205 207 210 213 213 213 216 219 219 217 215 213 213 215 218 225 231 237 241 241 239 238 237 236 232 229 227 226 227 227 225 221 218 212 203 192 189 186 188 190 179 159 164 190 187 186 195 203 207
204 206 203 203 206 209 210 211 213 212 206 205 204 203 201 200 200 201 202 201 201 204 204 204 205 206 207 207 205 203 198 194 192 195 198 199 201 205 209 211 210 211 214 215 214 212 212 212 214 217 221 228 237 245 249 247 244 238 234 232 230 229 228 226 227 229 229 225 223 221 217 215 213 213 210 202 194 180 164 172 186 185 179 176 186
203 205 205 203 207 212 211 214 216 208 201 202 202 202 201 200 200 200 201 201 201 203 204 205 205 206 208 207 206 204 199 194 193 194 196 197 200 204 206 207 206 208 211 211 209 208 208 210 213 216 222 229 239 248 250 248 242 235 230 227 227 227 227 228 228 227 228 226 225 227 229 231 231 233 233 223 218 212 196 156 160 172 165 142 144
203 203 205 201 203 207 207 211 209 198 196 200 201 200 200 200 200 199 201 201 201 202 203 205 206 207 208 207 206 205 200 197 196 197 198 199 201 202 203 204 204 205 207 208 207 205 206 209 213 217 223 231 239 246 247 243 237 231 229 227 227 229 229 232 234 232 232 230 229 229 229 233 236 237 238 233 228 218 199 159 146 162 155 136 137
207 204 203 202 203 203 205 208 204 197 198 200 200 200 198 198 199 201 202 201 200 201 203 205 207 208 207 206 206 204 201 199 199 200 200 201 202 203 205 207 207 209 209 209 208 206 208 211 216 221 226 232 238 242 241 237 233 231 230 231 231 233 234 235 238 237 234 230 229 229 230 233 235 235 234 232 227 217 203 176 147 122 125 133 130
215 212 208 204 204 203 206 208 203 199 200 200 200 199 198 198 199 201 202 199 199 201 202 204 207 207 206 206 206 204 202 200 201 202 202 203 203 204 207 210 212 214 213 211 210 210 211 214 218 223 228 233 236 237 234 231 231 231 232 235 236 236 235 234 233 232 229 226 225 226 228 229 227 227 227 228 227 223 217 198 170 139 97 106 106
216 218 216 211 207 206 207 207 204 202 202 201 200 197 197 198 199 201 202 199 198 200 202 204 205 205 205 205 205 203 202 200 201 203 203 204 205 205 209 212 214 215 214 213 212 212 213 215 218 222 226 231 233 233 231 230 231 234 237 239 237 234 231 229 226 221 218 217 215 216 217 213 211 213 214 216 218 216 220 214 194 176 155 120 83
216 214 215 214 210 208 208 207 205 203 202 202 201 199 199 199 199 200 200 198 199 201 202 202 203 204 204 204 204 202 202 201 201 201 201 204 206 207 210 213 213 214 214 214 214 213 214 216 218 221 224 227 229 228 228 230 234 238 241 241 236 230 223 219 216 210 205 203 202 202 202 198 196 201 206 210 215 215 213 212 208 198 181 160 145
219 216 215 214 212 210 208 207 205 204 203 202 203 203 202 201 200 198 197 197 200 200 200 201 201 202 203 203 203 203 202 202 202 201 200 202 205 206 208 211 212 212 214 215 214 213 212 214 217 220 221 223 225 225 227 230 234 237 238 236 231 222 214 207 203 200 197 196 195 191 189 190 190 194 200 202 205 214 213 204 206 207 197 183 170
221 219 219 217 215 213 209 209 208 206 205 205 205 204 203 202 201 199 198 199 199 199 198 200 201 202 203 202 202 202 201 201 202 200 200 202 205 205 207 210 210 210 213 215 214 212 212 213 216 218 219 221 222 223 226 229 232 234 231 225 218 212 208 200 194 195 196 196 193 188 185 185 185 184 183 181 180 185 198 201 201 203 206 205 186
221 216 219 218 216 214 211 210 208 206 206 205 203 201 202 202 201 199 199 198 198 199 198 199 201 202 202 201 201 201 200 200 200 199 199 203 206 206 207 208 207 208 211 214 213 212 212 213 214 215 217 220 221 222 225 227 228 229 226 219 210 204 203 198 192 191 193 196 193 187 184 182 179 178 172 167 165 159 162 173 188 197 200 205 193
230 220 219 218 217 217 213 212 211 209 207 203 198 198 200 200 200 199 197 196 197 198 198 198 200 201 200 199 200 199 198 198 198 198 200 203 205 207 208 208 206 207 210 212 212 212 213 213 213 214 216 219 221 222 223 223 224 222 217 213 206 200 198 196 192 189 189 192 191 184 180 177 176 176 169 165 160 152 150 143 143 168 171 173 183
244 234 227 222 219 218 215 214 213 208 202 197 196 197 196 197 199 199 196 196 198 197 197 198 198 199 200 199 198 196 195 196 197 197 199 202 205 207 209 208 207 209 211 211 211 211 212 213 212 213 215 218 221 221 222 221 221 218 212 207 204 199 197 194 192 189 185 186 187 183 177 172 173 174 167 163 160 151 146 138 131 139 145 149 168
248 242 235 228 222 218 215 215 211 200 193 193 194 195 195 198 198 196 197 198 199 198 197 196 196 198 198 197 196 194 193 195 195 196 198 201 204 207 209 209 209 210 211 212 212 211 211 211 211 212 215 217 218 218 220 220 219 217 211 205 203 201 199 196 192 189 185 183 184 182 177 172 171 171 165 162 161 154 148 140 130 132 137 138 150
248 243 237 232 225 218 216 215 204 194 191 191 192 194 197 198 196 196 199 200 198 197 195 195 196 197 196 194 194 193 192 193 194 195 198 200 203 205 207 208 208 209 210 210 211 211 210 210 210 212 214 215 216 216 216 217 218 217 212 207 204 202 202 201 196 192 187 186 186 183 178 175 175 173 168 166 165 160 157 147 133 131 136 135 137
258 248 239 232 227 221 216 207 192 192 193 191 191 194 196 196 196 198 199 198 196 195 194 194 194 194 193 193 193 192 192 193 193 194 197 199 201 203 204 205 206 208 208 208 207 207 209 209 211 214 215 216 216 215 215 214 214 213 211 210 206 203 202 201 199 196 192 190 189 186 181 179 181 179 173 172 172 168 166 156 142 137 137 137 136
268 255 243 233 230 226 215 201 191 192 193 192 192 193 195 196 197 198 198 195 194 193 193 193 193 192 192 192 192 192 193 193 193 193 195 197 199 201 201 202 204 206 206 206 205 206 208 210 213 216 217 218 217 216 216 215 213 211 209 209 206 203 202 201 199 197 194 192 191 189 186 183 186 187 182 179 178 176 172 164 153 146 143 141 138
266 255 250 241 234 228 216 203 197 193 191 193 195 195 194 194 196 197 196 193 193 192 191 191 192 191 192 192 192 193 193 192 192 193 194 195 198 200 200 201 202 204 204 204 204 206 208 211 214 215 217 219 217 216 216 214 213 211 207 205 205 202 200 199 198 195 193 193 192 192 192 190 191 194 193 189 185 183 178 169 161 154 149 146 141
264 242 241 241 233 224 214 203 199 197 193 193 194 196 196 195 195 194 193 192 191 189 190 191 191 192 193 193 194 193 192 191 191 193 194 195 196 199 200 200 200 202 204 204 204 206 208 210 212 214 217 218 217 216 214 212 211 210 206 204 203 201 199 196 195 195 193 193 194 196 198 197 197 202 205 203 199 194 184 171 165 160 155 153 147
279 255 226 226 226 216 207 201 196 194 193 192 191 193 194 194 194 192 191 191 189 188 189 190 191 193 194 194 193 191 190 189 190 192 194 194 195 196 196 197 199 201 203 204 205 206 207 207 208 211 215 216 216 216 214 212 210 207 205 203 202 201 199 195 192 192 193 193 195 197 199 200 200 202 209 212 210 209 200 182 172 166 163 160 154
282 277 236 212 214 206 199 200 196 191 191 191 190 190 190 191 192 190 190 190 188 187 189 190 192 194 193 192 190 189 188 187 189 192 194 194 194 193 192 193 197 199 201 202 202 203 205 206 206 208 212 214 215 216 216 214 211 208 204 202 201 202 200 197 193 192 193 195 196 197 198 198 198 199 205 211 210 209 207 197 183 174 171 170 164
275 280 261 206 199 199 196 197 197 195 193 192 191 190 190 190 189 189 189 189 187 187 189 191 192 192 191 189 188 187 186 187 190 193 194 194 193 191 190 191 194 197 200 200 201 201 203 205 206 208 211 213 214 216 215 212 211 209 206 202 202 202 200 198 197 196 196 197 196 196 194 194 198 202 207 211 207 199 194 194 189 180 178 179 176
279 283 276 220 184 190 200 199 196 194 193 194 192 189 189 189 188 189 189 187 186 188 190 191 191 189 188 187 186 185 185 187 189 192 194 194 191 189 189 190 191 195 197 197 199 200 201 202 205 209 212 213 214 214 212 210 209 208 208 205 203 202 200 198 199 199 198 196 194 192 192 195 200 206 212 209 199 190 188 190 190 186 184 185 185
285 287 286 265 189 178 192 196 194 193 193 193 190 188 191 190 188 188 186 185 187 190 190 190 189 188 186 185 184 183 184 186 189 191 193 191 190 189 189 190 193 195 195 195 197 198 198 200 204 207 211 212 213 212 209 207 208 207 207 206 204 203 201 199 200 200 198 197 196 192 192 196 200 207 211 202 191 186 188 192 195 194 191 190 189
279 283 290 284 216 171 179 187 189 191 191 190 189 190 192 189 186 184 184 186 188 190 190 189 188 187 186 184 183 183 185 186 188 190 191 189 189 190 191 193 193 192 192 194 195 196 197 199 203 207 210 210 210 210 207 206 206 206 205 206 205 204 202 202 202 201 202 204 200 195 195 197 199 202 201 192 187 186 189 194 200 201 198 196 195
266 270 280 282 237 166 168 179 182 183 183 184 186 188 186 183 182 182 184 187 188 189 190 189 187 186 185 183 183 183 184 185 187 189 190 190 191 191 192 193 192 190 192 195 196 197 197 198 202 206 208 207 207 207 205 204 204 204 203 204 205 204 202 204 205 205 209 211 203 198 201 200 198 198 195 191 190 189 189 195 202 203 201 200 200
236 235 242 248 228 196 187 183 180 178 177 179 181 181 179 179 179 181 185 187 188 188 188 187 186 186 184 184 184 183 183 184 186 188 189 190 192 193 193 192 190 190 193 194 196 198 198 197 199 203 205 204 205 205 202 202 202 201 201 202 204 204 203 205 208 209 212 213 205 202 205 203 200 198 194 195 197 193 190 194 199 201 203 205 203
241 240 237 230 226 221 205 186 177 175 175 176 177 176 176 177 179 181 184 186 186 186 185 185 185 185 185 184 183 182 183 184 186 188 189 191 192 193 192 188 187 190 193 194 196 199 199 196 195 198 202 203 203 202 201 200 199 199 200 201 202 204 205 207 210 210 213 212 207 207 209 206 204 202 197 198 201 196 192 195 198 203 210 213 210
253 256 250 229 216 211 203 188 178 176 178 176 173 173 174 176 179 181 182 182 184 184 183 184 185 185 185 184 183 183 183 184 187 190 192 193 194 192 189 188 191 194 194 195 197 199 199 196 195 197 201 203 203 201 199 199 198 199 200 200 202 204 206 208 210 211 213 213 209 210 212 211 207 203 200 200 198 195 197 201 203 208 218 222 217
244 250 258 246 220 199 192 187 180 179 180 176 173 172 172 174 177 178 179 181 184 186 186 186 186 185 185 184 184 184 185 188 192 193 194 194 193 189 188 191 195 195 195 196 197 196 197 197 197 199 202 204 203 199 197 198 199 199 200 201 202 204 205 207 209 210 211 212 210 210 212 214 211 206 204 203 200 199 203 207 209 217 227 230 222
252 271 280 262 227 195 180 180 184 184 180 176 173 170 169 172 175 175 180 187 191 192 191 188 185 183 183 184 185 186 188 192 196 196 195 193 190 187 188 191 193 195 195 195 194 193 193 194 197 200 202 204 203 199 196 198 200 200 200 201 203 203 204 206 209 210 210 210 210 210 212 216 214 209 210 211 209 210 213 214 216 226 238 238 224
280 307 297 257 209 194 190 190 188 182 176 173 171 170 172 176 177 181 188 193 194 193 192 188 184 182 183 184 186 188 192 196 197 195 194 192 190 189 189 190 193 194 192 189 187 189 191 194 198 200 201 203 204 200 196 198 200 201 201 202 204 205 206 208 209 210 210 210 209 208 211 216 215 215 218 218 216 220 223 222 222 230 243 244 226
243 301 281 233 198 194 200 200 190 180 175 174 173 177 182 181 182 190 193 191 189 190 191 188 185 184 184 184 186 190 193 197 198 195 190 189 189 188 189 192 194 191 186 184 185 188 189 192 197 199 199 201 203 202 199 199 201 202 203 205 206 207 208 210 210 209 210 212 211 209 211 215 214 217 223 223 221 225 227 227 227 229 235 239 227
162 193 242 218 196 197 202 198 189 182 178 177 179 183 186 187 192 194 187 183 187 190 189 188 188 187 185 183 186 190 194 197 199 195 188 185 185 185 188 192 192 186 180 181 183 183 184 187 192 195 197 199 201 203 203 203 202 203 204 206 208 209 210 212 213 211 212 214 213 211 213 215 213 217 225 222 219 223 227 228 228 228 231 235 231
169 183 247 227 205 209 210 195 186 185 182 182 185 186 187 196 200 192 183 185 188 186 184 189 193 191 186 184 186 191 196 199 198 192 184 181 181 182 185 189 190 184 178 178 178 177 179 184 187 189 192 198 202 203 205 206 205 204 205 207 209 211 212 214 217 217 218 218 216 214 217 217 214 217 221 216 214 218 223 224 225 224 228 233 234
190 181 233 236 214 211 214 193 186 188 187 189 192 189 192 201 198 187 185 188 184 179 182 190 192 188 184 183 187 192 197 199 196 189 181 178 177 177 181 185 186 183 180 178 176 175 179 183 184 184 188 195 200 202 203 206 207 207 207 208 210 213 214 217 220 221 223 223 220 218 220 219 215 215 212 209 212 217 219 220 223 223 227 232 234
238 182 201 273 314 276 237 188 187 190 190 194 197 196 201 206 199 190 190 188 178 176 182 184 181 183 185 185 187 192 195 196 194 189 183 180 178 176 177 181 184 185 184 180 174 175 181 182 181 182 186 190 194 199 202 204 205 206 208 209 211 213 215 219 222 224 226 226 221 220 221 218 214 213 211 211 215 217 217 220 224 225 228 233 235
298 254 156 105 23 347 358 81 184 195 193 194 197 201 207 210 201 192 187 180 173 176 180 179 180 185 187 184 184 189 192 192 192 187 181 178 179 178 178 181 184 183 176 170 170 175 179 180 180 182 184 186 192 197 201 203 203 204 206 208 209 211 214 217 220 222 223 221 218 218 221 219 215 214 215 218 219 217 218 222 225 227 231 235 236
334 339 25 120 112 63 66 99 169 210 205 198 198 203 207 205 195 187 178 172 174 179 181 180 181 184 184 182 183 187 189 190 190 184 176 175 177 177 179 183 184 176 166 165 174 180 183 185 184 182 179 181 188 196 201 205 205 204 204 205 206 209 211 213 214 215 215 214 215 217 218 217 216 215 217 219 219 219 221 225 229 231 233 236 239
14 16 21 54 98 105 100 104 130 192 208 207 206 207 205 196 188 183 177 175 177 179 180 179 179 180 182 183 185 188 188 187 185 180 177 178 181 182 183 183 183 183 185 188 189 189 190 190 188 185 183 182 189 200 208 210 208 206 206 206 206 208 209 211 212 212 210 209 211 213 213 212 212 215 218 219 219 221 224 227 232 234 235 237 240
47 63 57 58 78 100 105 107 125 160 182 194 203 206 201 192 185 182 181 179 177 177 177 176 176 179 182 184 185 186 185 183 179 172 169 172 178 183 183 181 182 188 195 199 197 195 195 194 193 194 196 197 202 208 211 211 208 209 210 210 209 209 210 211 212 211 209 208 208 209 210 211 211 214 217 219 220 222 225 229 232 235 236 237 239
27 57 69 73 87 103 107 108 121 144 160 174 188 194 194 191 188 187 186 183 179 176 172 171 176 182 185 185 182 178 176 175 172 167 163 159 156 163 175 181 184 187 191 195 197 197 198 199 200 201 201 205 211 214 214 212 210 210 210 211 211 211 212 213 212 209 206 207 208 208 208 209 211 214 217 221 223 225 229 232 235 236 237 237 237
Height
745 746 751 755 758 761 763 766 770 774 777 780 781 782 783 786 788 790 792 794 796 797 797 798 798 799 800 801 803 806 810 812 814 816 818 820 822 824 826 829 830 832 834 835 836 837 838 838 840 841 842 843 844 845 846 847 848 848 849 849 850 850 852 854 854 855 857 860 863 864 865 866 866 867 867 867 867 868 868 868 868 868 869 869 869
744 746 749 754 757 759 761 763 765 767 771 776 779 781 782 784 785 787 789 791 793 795 796 796 796 797 798 799 801 805 807 810 812 814 816 819 821 823 825 827 829 831 832 833 834 835 836 837 838 839 841 842 843 845 846 846 847 848 849 849 850 850 851 853 854 855 856 859 861 864 866 867 867 867 867 867 867 868 868 868 868 868 869 869 869
744 745 748 751 753 756 759 760 761 762 766 772 776 779 781 781 782 784 786 788 790 793 794 795 796 798 799 800 802 804 806 809 811 813 815 817 819 821 824 826 827 829 831 832 833 834 835 836 837 838 840 841 842 844 845 846 847 848 848 848 849 850 851 852 853 854 855 858 860 863 865 866 867 867 867 867 867 867 868 868 868 868 868 869 869
743 743 744 747 750 754 756 757 758 760 763 767 771 774 776 777 778 780 782 784 787 789 792 795 797 799 800 801 803 805 806 808 810 812 814 816 818 820 822 824 826 828 829 830 831 833 834 835 836 837 838 840 841 843 844 845 846 847 848 848 848 849 850 851 852 853 854 856 859 862 864 865 865 865 866 866 867 867 867 867 867 867 868 868 868
738 739 740 742 746 749 750 752 754 757 759 761 764 768 770 773 776 778 780 782 784 787 790 793 796 798 799 801 803 804 805 807 808 809 811 813 816 818 820 822 824 826 827 829 830 831 832 833 835 836 837 839 840 842 843 844 845 846 847 847 847 847 848 850 851 852 853 854 856 858 861 862 862 863 864 866 866 866 866 866 867 867 867 868 868
732 732 733 737 741 743 746 748 751 753 753 755 758 762 767 771 774 777 779 780 782 785 788 791 793 795 796 797 798 799 801 802 803 805 808 811 813 816 819 821 822 824 825 827 828 830 831 832 833 834 836 838 839 841 842 843 844 845 846 846 846 846 847 849 850 851 853 853 854 855 856 857 858 861 864 865 865 865 865 866 866 866 867 867 868
730 729 730 734 738 741 743 745 747 748 747 750 755 759 764 767 771 774 776 778 780 783 785 788 790 792 793 793 794 795 796 798 800 804 807 809 812 814 817 819 820 822 824 826 827 829 830 831 832 833 835 836 838 839 841 842 843 844 845 845 845 846 846 847 848 850 851 852 853 854 854 855 855 858 861 862 863 864 864 864 865 865 866 866 867
727 728 729 733 736 738 740 741 741 741 742 747 752 755 758 762 766 770 773 775 778 780 783 784 786 789 791 792 792 793 794 796 800 803 806 808 810 813 815 817 818 820 822 824 826 827 829 830 831 832 834 835 837 838 839 841 842 843 843 843 844 844 845 845 846 848 849 851 852 853 854 855 855 855 857 858 859 861 863 863 864 864 865 866 866
723 725 727 729 732 733 735 736 737 737 740 744 746 749 754 759 763 767 770 772 774 777 779 781 783 785 788 790 790 792 794 796 799 802 804 806 808 810 812 814 816 818 820 822 823 825 827 829 830 831 833 834 835 837 838 839 840 841 841 842 842 843 843 844 845 846 848 849 850 852 853 854 855 855 855 855 856 858 860 862 862 863 864 865 866
721 722 723 725 726 728 729 731 732 734 738 742 745 749 753 757 761 764 765 768 771 774 776 778 780 783 784 786 788 790 792 794 797 799 802 804 806 808 810 812 814 816 818 820 822 823 825 827 829 830 831 833 834 835 836 838 838 839 840 840 840 841 842 843 844 845 847 848 848 850 851 852 853 854 854 854 855 856 858 859 860 861 862 864 865
719 719 721 722 723 725 727 729 730 733 738 741 745 749 751 754 757 760 762 765 768 770 772 775 777 779 781 783 786 788 790 792 794 796 798 801 803 805 808 810 812 814 816 819 820 822 823 825 827 829 830 832 833 834 835 836 837 838 838 839 839 840 841 842 843 844 845 846 847 848 849 849 850 851 851 852 853 854 855 857 858 859 861 862 864
716 717 718 720 722 724 726 728 730 734 738 740 742 745 748 751 754 757 759 761 763 766 769 771 774 776 778 781 784 786 787 788 790 793 795 798 800 803 806 808 810 813 815 817 818 820 822 824 826 827 829 830 832 833 834 835 836 837 837 837 838 838 839 840 841 842 843 844 845 846 847 847 848 849 849 850 851 852 853 855 857 859 860 862 863
713 715 716 718 719 721 723 725 727 731 734 736 738 741 743 746 750 752 753 755 759 762 765 768 770 772 775 778 782 784 785 786 788 790 792 795 798 801 804 806 808 810 812 814 816 818 820 822 824 826 827 829 830 831 833 834 835 835 836 836 836 837 838 839 839 840 841 842 843 844 845 846 846 847 848 849 850 850 851 854 856 858 859 861 862
712 712 712 714 715 716 717 719 722 725 728 730 733 736 739 742 745 748 749 752 755 758 761 764 766 769 772 776 779 781 783 784 786 787 789 793 795 798 801 803 804 806 809 811 814 817 819 821 823 824 826 827 829 830 831 833 833 834 834 834 835 836 836 837 838 838 839 840 841 842 843 844 845 845 846 847 848 849 850 851 854 857 859 860 861
711 710 709 709 709 710 712 714 717 720 723 725 728 732 735 737 740 743 745 748 751 754 757 760 763 767 770 773 776 779 780 782 784 785 787 790 793 796 799 800 802 805 807 810 813 815 818 819 821 823 824 826 827 829 830 831 832 833 833 833 833 834 835 835 836 837 838 839 840 841 842 843 843 844 845 846 846 847 848 849 851 854 858 860 861
707 707 707 706 705 706 707 710 712 715 718 721 724 727 730 732 734 737 740 743 747 751 754 757 761 765 768 770 773 776 778 780 781 783 785 788 791 794 796 799 801 804 806 809 812 814 816 818 820 821 823 824 826 828 829 830 831 832 832 832 832 832 833 834 835 836 837 838 839 840 841 842 843 843 844 845 845 846 847 848 848 850 854 858 861
703 703 703 702 702 702 703 705 708 711 714 716 719 722 723 725 728 732 736 740 744 747 750 754 758 761 764 767 770 773 775 777 778 780 784 787 790 792 795 797 799 802 805 807 810 812 814 816 818 820 821 823 825 827 828 829 830 830 830 831 831 831 832 833 834 835 836 837 838 839 840 841 842 843 843 844 845 845 846 847 848 848 849 853 858
699 697 698 698 698 698 699 700 702 704 707 710 713 715 717 720 723 727 731 735 738 742 746 751 755 758 761 764 767 770 772 774 776 779 783 786 788 791 793 795 797 800 803 806 808 810 813 815 816 818 820 822 824 826 827 828 829 829 829 830 830 831 832 833 834 835 836 837 838 839 840 841 841 842 843 843 844 844 845 846 847 848 848 850 852
696 695 695 694 694 695 695 696 697 699 702 704 707 712 715 718 721 724 727 730 735 741 745 748 751 755 757 760 764 767 769 772 774 777 780 783 785 788 791 793 795 798 801 803 806 808 811 813 814 816 818 820 822 824 826 827 828 828 828 829 829 830 831 832 834 835 836 836 837 838 839 840 841 842 843 843 844 844 844 845 846 847 848 849 850
691 691 691 690 690 690 690 692 693 694 697 699 704 709 713 716 719 722 726 730 735 738 741 744 747 751 754 758 761 764 766 769 771 774 777 780 783 785 788 790 793 796 799 801 804 806 808 810 813 815 817 819 821 823 824 826 826 827 827 828 829 830 831 832 833 834 835 836 837 838 839 840 841 842 843 843 844 844 845 845 846 846 847 849 850
687 686 686 685 685 685 685 687 688 690 693 696 701 705 708 713 717 719 723 727 730 734 737 740 744 747 751 754 758 761 764 767 769 772 775 778 780 783 785 788 791 794 796 799 802 804 806 809 811 813 815 817 819 821 823 824 825 826 827 828 828 829 831 832 833 834 835 836 837 838 839 840 841 842 843 843 844 845 845 845 846 846 847 848 849
684 683 682 681 681 681 682 684 685 688 691 695 698 701 705 709 712 716 719 722 725 728 732 735 740 744 747 751 755 759 762 765 767 770 772 775 778 780 783 786 789 791 794 797 799 802 805 807 809 812 814 816 818 820 822 823 824 825 826 827 828 829 830 831 832 833 834 836 837 838 839 840 841 842 843 843 844 845 846 846 847 847 847 848 849
682 680 679 677 676 677 678 680 681 684 688 691 695 698 701 704 707 712 715 717 720 723 728 732 737 741 745 749 753 756 759 762 764 767 769 772 775 778 781 783 786 789 792 794 797 800 803 805 808 810 812 815 817 818 820 821 822 823 824 826 827 828 829 830 831 833 834 835 837 838 839 840 841 842 843 844 845 845 846 847 847 848 848 849 850
680 678 675 674 673 673 674 675 678 682 685 687 690 694 697 700 704 708 710 712 717 721 726 730 734 738 742 747 750 753 756 758 761 764 766 769 772 775 778 780 783 786 789 792 795 798 800 803 806 808 810 813 815 816 818 819 821 822 823 825 826 827 828 830 831 832 833 835 836 837 838 840 841 842 843 844 845 846 847 847 848 848 849 850 851
676 675 672 671 669 669 670 671 675 679 681 683 685 689 693 696 699 702 705 709 714 719 723 727 731 735 739 743 746 749 752 754 757 760 763 766 769 772 775 778 781 783 786 789 792 795 798 801 803 806 808 810 812 814 816 818 819 820 822 823 825 826 828 829 830 831 833 834 835 837 838 839 841 842 843 844 845 846 847 848 848 849 850 850 851
672 670 669 668 666 665 666 668 670 673 676 679 681 684 688 691 694 697 702 707 712 716 720 724 728 732 735 739 742 745 748 750 754 757 760 764 767 770 773 775 778 781 784 787 790 793 796 799 801 804 806 808 810 813 814 816 818 819 820 822 824 825 827 828 829 831 832 834 835 837 838 839 841 842 843 844 845 846 847 848 849 849 850 851 851
669 666 665 664 663 663 663 665 666 667 670 674 678 680 683 686 690 694 699 704 708 713 717 721 725 729 732 735 738 741 744 747 751 755 758 761 764 767 770 773 775 778 781 784 787 790 793 796 799 802 804 806 809 811 813 814 816 818 819 821 822 824 826 827 829 830 832 834 835 837 838 839 841 842 843 844 845 846 847 848 849 849 850 851 852
666 664 662 661 661 661 661 662 664 666 667 670 674 677 681 683 687 691 697 701 705 710 714 718 722 725 728 731 734 738 741 745 749 753 755 758 760 763 767 770 773 776 778 781 784 788 791 794 797 800 802 805 807 809 811 813 815 816 818 819 821 823 825 826 829 830 832 834 835 837 838 840 841 842 843 844 845 846 847 848 849 849 850 851 852
660 659 659 659 658 658 659 659 661 663 666 668 671 674 679 683 686 690 694 697 702 706 710 714 718 720 723 727 732 735 739 743 747 750 753 755 758 760 764 767 771 773 776 779 782 785 788 791 795 798 801 803 805 807 809 811 813 815 817 818 820 822 824 826 827 829 831 833 834 836 838 840 841 842 843 844 845 846 847 847 848 849 850 851 852
657 653 655 656 656 655 656 658 659 660 663 665 667 670 673 678 682 686 690 694 698 702 706 710 714 717 721 725 729 733 736 740 744 747 750 753 756 759 761 764 768 771 774 777 780 783 786 789 792 796 799 801 803 805 808 810 812 814 815 817 819 821 823 824 826 828 830 832 833 835 837 839 841 842 843 844 845 846 846 847 848 849 850 850 851
655 651 651 653 653 652 653 655 656 658 660 662 664 667 670 674 679 683 686 691 695 699 702 706 709 714 719 723 726 730 733 736 740 744 747 751 754 757 759 762 765 769 772 774 777 780 783 787 791 793 796 799 801 803 806 808 810 812 814 816 817 819 821 823 825 826 828 830 832 834 836 838 839 840 842 843 844 845 846 847 848 849 849 850 851
653 649 648 649 650 651 652 653 654 656 658 661 663 666 670 672 676 679 683 688 692 696 699 703 707 711 716 720 723 726 730 733 737 741 745 748 752 754 757 760 762 765 769 771 774 778 781 785 788 791 794 796 799 801 804 806 808 810 812 814 816 818 819 821 823 825 827 829 831 833 835 836 838 839 840 842 843 844 846 847 848 849 849 850 851
651 649 646 646 647 649 651 652 653 654 656 658 662 666 668 670 674 678 683 687 691 694 698 701 705 709 713 716 720 723 727 730 734 738 742 746 749 752 754 757 759 762 765 769 772 775 778 781 785 788 791 793 796 799 801 804 806 809 811 813 815 816 818 820 822 824 826 828 830 832 833 835 836 838 839 841 842 843 845 847 848 848 849 849 850
650 648 645 645 645 647 649 650 651 653 655 658 661 664 667 671 675 679 683 687 690 693 697 700 703 707 710 713 717 720 724 727 731 736 740 743 746 749 752 755 756 758 762 766 769 772 774 777 781 784 787 789 793 796 799 802 804 807 809 811 813 815 817 819 821 824 826 827 829 830 832 833 835 837 838 840 841 842 844 846 847 848 848 849 849
648 647 645 644 645 646 648 648 649 651 653 657 660 663 666 670 673 677 681 684 688 691 695 698 702 705 708 711 714 717 721 725 728 733 736 740 744 746 749 752 754 755 758 761 766 769 770 772 776 780 783 786 789 793 796 799 802 805 807 809 811 813 815 818 820 822 825 826 828 829 831 832 834 835 837 838 839 840 842 843 845 846 847 848 849
648 646 644 643 644 645 646 647 647 648 650 654 657 661 665 668 671 675 678 682 686 689 693 696 700 703 705 708 711 714 718 722 726 730 733 737 741 744 746 749 752 754 756 758 763 766 766 768 772 776 780 783 786 790 793 797 800 802 805 807 810 812 814 816 818 821 824 826 827 829 830 831 832 834 835 837 838 839 840 841 843 844 846 847 847
649 648 645 643 643 644 645 646 647 648 650 652 655 659 663 667 670 673 676 680 683 686 689 693 696 700 703 705 708 712 716 719 723 727 731 734 737 740 743 746 749 751 754 756 760 763 765 766 768 772 776 780 783 787 791 794 797 800 803 805 808 810 813 815 817 819 822 824 826 828 829 830 832 833 834 836 837 838 839 841 842 843 844 845 846
650 649 647 645 644 644 645 646 647 647 649 651 654 657 661 666 669 672 675 679 681 684 687 689 693 697 700 703 706 709 713 717 720 724 728 731 735 738 740 743 745 748 751 754 757 761 765 767 768 770 774 777 780 784 788 792 795 798 800 803 806 808 811 813 815 818 820 822 824 826 828 829 831 832 833 835 836 837 838 839 840 841 843 843 844
647 647 645 643 643 643 644 646 647 648 649 650 653 656 660 664 668 671 674 677 679 681 683 685 689 693 698 701 705 708 711 714 718 721 725 728 731 734 737 740 742 745 749 752 754 758 763 766 768 771 774 776 779 783 786 789 793 796 798 800 803 806 808 811 813 815 818 820 822 825 826 828 830 832 833 834 835 836 837 838 839 840 841 842 842
641 641 641 641 642 643 643 644 645 646 648 650 652 655 659 663 666 670 672 674 676 679 681 684 687 691 695 699 703 706 709 711 714 718 723 726 728 731 735 738 740 743 746 749 752 757 762 765 767 770 772 775 777 781 784 787 790 793 795 798 801 803 806 809 811 813 815 818 820 823 825 827 829 831 832 833 834 835 836 837 838 839 839 840 841
637 636 637 639 640 642 643 643 643 644 647 650 653 655 657 660 664 667 668 670 674 679 682 685 687 689 692 696 699 703 705 708 711 714 719 723 726 728 732 735 737 740 743 747 752 756 760 764 766 767 769 773 776 779 782 785 787 790 793 796 798 801 804 807 809 811 813 815 818 821 823 825 827 829 830 832 833 834 835 836 836 837 838 839 839
636 635 637 638 638 640 643 642 643 644 645 648 651 654 656 659 661 662 665 670 675 679 681 684 686 687 689 692 696 699 702 705 709 712 716 720 723 726 728 731 734 737 740 744 748 752 757 761 764 766 767 770 774 778 780 782 785 788 791 794 796 799 802 805 807 809 811 813 816 818 821 823 825 826 828 829 831 832 833 834 834 836 837 838 838
635 636 636 637 637 637 639 640 641 642 643 646 649 651 655 657 657 659 663 667 671 675 678 682 686 688 688 689 692 696 699 702 706 709 712 717 720 724 726 728 731 734 738 742 745 750 754 758 762 764 767 769 773 776 779 781 783 786 789 792 795 798 801 803 805 807 809 811 813 816 818 820 822 823 825 826 828 829 830 831 832 834 835 836 837
632 633 634 635 635 635 635 637 638 640 642 645 646 649 652 653 654 658 663 664 666 668 672 678 684 687 687 687 690 693 697 700 703 706 709 713 717 720 723 725 728 731 734 739 742 746 751 754 757 761 765 768 771 774 778 780 782 785 788 791 794 797 799 801 803 805 807 808 811 814 816 818 819 820 821 823 824 826 827 829 830 831 832 834 834
628 629 632 633 632 632 633 635 635 637 639 642 644 647 648 649 651 656 660 661 663 665 668 675 683 687 688 688 689 691 694 697 700 703 706 710 714 718 721 723 725 728 732 736 740 744 747 750 753 757 761 765 769 772 776 778 781 783 786 789 792 795 797 800 802 804 805 807 809 812 814 816 817 818 819 820 822 823 825 826 828 829 830 831 832
627 625 627 628 629 629 631 633 634 635 637 639 642 644 645 647 650 653 653 654 656 660 666 674 680 683 684 685 687 689 692 694 698 700 702 705 709 714 718 721 723 726 729 733 738 742 745 747 751 755 758 762 766 770 773 775 778 781 784 787 790 793 796 799 801 803 804 806 809 811 813 814 816 817 818 818 819 821 823 824 825 826 828 829 830
631 625 623 624 626 628 628 630 632 634 635 638 640 642 644 646 649 649 649 650 654 659 665 670 673 675 676 677 681 686 690 692 695 697 699 702 704 708 712 716 719 723 729 734 739 742 745 748 752 754 757 760 764 768 770 772 774 777 780 784 788 791 794 797 799 801 803 806 808 810 811 813 814 815 816 817 818 819 820 822 823 824 825 827 828
633 628 623 622 624 627 628 629 630 631 633 635 637 640 642 644 645 646 648 651 654 658 662 666 669 672 674 674 676 680 684 687 689 692 695 698 701 704 707 711 715 720 727 733 738 740 743 747 750 752 755 759 762 765 766 767 770 773 776 780 785 788 791 794 796 799 802 804 806 808 809 810 812 813 814 815 816 817 818 819 821 822 823 825 826
633 631 628 626 626 627 628 630 631 632 632 633 635 638 640 642 644 646 648 651 655 658 661 664 667 670 672 673 674 677 679 683 687 690 692 694 696 699 702 707 712 717 720 724 728 732 736 740 744 748 752 756 758 759 761 763 766 770 774 777 781 784 787 790 794 796 799 802 804 805 806 807 808 810 811 813 814 815 816 817 818 820 821 822 823
634 633 631 630 630 629 630 632 633 634 635 636 637 639 641 643 644 646 648 651 654 657 660 664 667 669 670 672 673 676 679 683 688 692 694 696 698 699 701 705 709 714 717 720 723 728 732 736 740 744 747 750 752 754 757 762 766 769 772 775 778 781 784 788 791 794 797 799 800 801 802 803 805 806 808 809 811 812 813 814 815 817 818 819 820
637 635 634 633 633 633 633 633 635 636 638 639 641 642 643 645 646 646 648 649 652 655 659 662 664 666 667 669 671 674 678 683 688 693 696 699 702 704 706 707 710 713 717 721 724 728 732 735 738 742 746 749 751 754 758 762 765 768 771 774 777 780 783 785 788 791 794 796 797 798 799 801 802 803 804 806 807 808 809 811 812 813 815 816 817